Location: Maccacari
(45.1333°N, 11.1333°E)
Time: 02:34:25
(UTC+00:00)

Altair - Pass Details

Date: 31 January 2021
Orbit: 1501 x 1682 km, 47.2° (Epoch: 01 March)

Event Time Altitude Azimuth Distance (km) Brightness Sun altitude
Rises 08:18:28 0° 293° (WNW) 4,928 9.6 14.1°
Reaches altitude 10° 08:21:40 10° 290° (WNW) 3,946 9.2 14.5°
Maximum altitude 08:31:34 60° 214° (SW) 1,885 8.3 15.7°
Drops below altitude 10° 08:41:20 10° 138° (SE) 3,895 12.4 16.9°
Sets 08:44:29 0° 135° (SE) 4,861 11.9 17.3°
